When you browse on this site, cookies collect data to enhance your experience and personalize the content and advertising you see.
Visit our Privacy Policy to learn more. By continuing to use the site, you agree to this use of cookies and data.
  • In Austria
  • List of Countries
  • For 7 days
  • Water Temperature
  • Weather Map
  • News
  • Weather Widgets
  • user-avatar
    Login

    Hourly Weather Osaka

    Today, 6 June, Saturday

    Time Temperature Precipitation Wind Pressure Humidity
    00:00 +26°C° 0 mm 1 mps 756 mmHg 64%
    01:00 +26°C° 0 mm 1 mps 755 mmHg 66%
    02:00 +26°C° 0 mm 1 mps 755 mmHg 67%
    03:00 +23°C° 0 mm 0 mps 755 mmHg 69%
    04:00 +23°C° 0 mm 0 mps 755 mmHg 68%
    05:00 +23°C° 0 mm 0 mps 756 mmHg 68%
    06:00 +25°C° 0 mm 1 mps 756 mmHg 67%
    07:00 +26°C° 0 mm 1 mps 756 mmHg 62%
    08:00 +27°C° 0 mm 1 mps 756 mmHg 57%
    09:00 +28°C° 0 mm 1 mps 756 mmHg 51%
    10:00 +29°C° 0 mm 1 mps 756 mmHg 46%
    11:00 +30°C° 0 mm 1 mps 756 mmHg 42%
    12:00 +32°C° 0 mm 2 mps 756 mmHg 38%
    13:00 +31°C° 0 mm 2 mps 755 mmHg 39%
    14:00 +31°C° 0 mm 2 mps 755 mmHg 40%
    15:00 +31°C° 0 mm 2 mps 754 mmHg 41%
    16:00 +29°C° 0.2 mm 3 mps 755 mmHg 51%
    17:00 +27°C° 0.2 mm 3 mps 755 mmHg 61%
    18:00 +26°C° 0.2 mm 4 mps 756 mmHg 71%
    19:00 +25°C° 0.1 mm 4 mps 756 mmHg 71%
    20:00 +25°C° 0.1 mm 3 mps 756 mmHg 71%
    21:00 +24°C° 0.1 mm 3 mps 756 mmHg 72%
    22:00 +24°C° 0 mm 2 mps 756 mmHg 71%
    23:00 +23°C° 0 mm 2 mps 756 mmHg 70%

    Tomorrow, 7 June, Sunday

    Time Temperature Precipitation Wind Pressure Humidity
    00:00 +23°C° 0 mm 2 mps 756 mmHg 69%
    01:00 +21°C° 0 mm 2 mps 756 mmHg 68%
    02:00 +21°C° 0 mm 2 mps 756 mmHg 67%
    03:00 +21°C° 0 mm 2 mps 756 mmHg 67%
    04:00 +21°C° 0 mm 2 mps 756 mmHg 65%
    05:00 +21°C° 0 mm 2 mps 757 mmHg 64%
    06:00 +20°C° 0 mm 2 mps 757 mmHg 63%
    07:00 +23°C° 0 mm 2 mps 757 mmHg 56%
    08:00 +24°C° 0 mm 2 mps 757 mmHg 49%
    09:00 +26°C° 0 mm 3 mps 757 mmHg 42%
    10:00 +27°C° 0 mm 3 mps 757 mmHg 38%
    11:00 +29°C° 0 mm 3 mps 757 mmHg 33%
    12:00 +30°C° 0 mm 4 mps 757 mmHg 29%
    13:00 +30°C° 0 mm 4 mps 757 mmHg 29%
    14:00 +30°C° 0 mm 5 mps 757 mmHg 29%
    15:00 +32°C° 0 mm 5 mps 756 mmHg 28%
    16:00 +30°C° 0 mm 4 mps 757 mmHg 30%
    17:00 +29°C° 0 mm 4 mps 757 mmHg 32%
    18:00 +28°C° 0 mm 3 mps 758 mmHg 34%
    19:00 +27°C° 0 mm 3 mps 758 mmHg 38%
    20:00 +25°C° 0 mm 3 mps 758 mmHg 42%
    21:00 +24°C° 0 mm 2 mps 759 mmHg 46%
    22:00 +24°C° 0 mm 2 mps 759 mmHg 50%
    23:00 +23°C° 0 mm 2 mps 760 mmHg 54%

    Day after tomorrow, 8 June, Monday

    Time Temperature Precipitation Wind Pressure Humidity
    00:00 +21°C° 0 mm 2 mps 760 mmHg 58%
    01:00 +21°C° 0 mm 2 mps 760 mmHg 59%
    02:00 +22°C° 0 mm 1 mps 760 mmHg 59%
    03:00 +21°C° 0 mm 1 mps 760 mmHg 60%
    04:00 +21°C° 0 mm 1 mps 760 mmHg 60%
    05:00 +22°C° 0 mm 1 mps 761 mmHg 59%
    06:00 +22°C° 0 mm 1 mps 761 mmHg 59%
    07:00 +24°C° 0 mm 1 mps 761 mmHg 52%
    08:00 +26°C° 0 mm 1 mps 761 mmHg 45%
    09:00 +26°C° 0 mm 0 mps 762 mmHg 38%
    10:00 +29°C° 0 mm 1 mps 762 mmHg 33%
    11:00 +31°C° 0 mm 1 mps 762 mmHg 29%
    12:00 +32°C° 0 mm 2 mps 762 mmHg 25%
    13:00 +32°C° 0 mm 2 mps 762 mmHg 25%
    14:00 +33°C° 0 mm 3 mps 761 mmHg 24%
    15:00 +33°C° 0 mm 4 mps 761 mmHg 24%
    16:00 +32°C° 0 mm 4 mps 761 mmHg 33%
    17:00 +30°C° 0 mm 4 mps 761 mmHg 41%
    18:00 +28°C° 0 mm 5 mps 762 mmHg 50%
    19:00 +28°C° 0 mm 4 mps 762 mmHg 55%
    20:00 +27°C° 0 mm 3 mps 763 mmHg 59%
    21:00 +26°C° 0 mm 2 mps 763 mmHg 64%
    22:00 +25°C° 0 mm 2 mps 763 mmHg 66%
    23:00 +25°C° 0 mm 2 mps 763 mmHg 68%

    9 June, Tuesday

    Time Temperature Precipitation Wind Pressure Humidity
    00:00 +25°C° 0 mm 1 mps 763 mmHg 69%
    01:00 +24°C° 0 mm 1 mps 763 mmHg 71%
    02:00 +24°C° 0 mm 1 mps 763 mmHg 72%
    03:00 +24°C° 0 mm 1 mps 763 mmHg 74%
    04:00 +24°C° 0 mm 1 mps 763 mmHg 73%
    05:00 +24°C° 0 mm 1 mps 764 mmHg 73%
    06:00 +24°C° 0 mm 1 mps 764 mmHg 72%
    07:00 +26°C° 0 mm 1 mps 764 mmHg 64%
    08:00 +27°C° 0 mm 1 mps 764 mmHg 57%
    09:00 +29°C° 0 mm 1 mps 764 mmHg 49%
    10:00 +30°C° 0 mm 2 mps 764 mmHg 44%
    11:00 +31°C° 0 mm 2 mps 764 mmHg 40%
    12:00 +33°C° 0 mm 3 mps 764 mmHg 35%
    13:00 +33°C° 0 mm 3 mps 763 mmHg 36%
    14:00 +33°C° 0 mm 4 mps 763 mmHg 36%
    15:00 +33°C° 0 mm 5 mps 762 mmHg 37%
    16:00 +32°C° 0 mm 5 mps 762 mmHg 43%
    17:00 +30°C° 0 mm 5 mps 763 mmHg 50%
    18:00 +29°C° 0 mm 5 mps 763 mmHg 56%
    19:00 +28°C° 0 mm 4 mps 763 mmHg 60%
    20:00 +27°C° 0 mm 3 mps 764 mmHg 63%
    21:00 +26°C° 0 mm 3 mps 764 mmHg 67%
    22:00 +26°C° 0 mm 3 mps 764 mmHg 68%
    23:00 +25°C° 0 mm 2 mps 764 mmHg 69%

    10 June, Wednesday

    Time Temperature Precipitation Wind Pressure Humidity
    00:00 +25°C° 0 mm 2 mps 764 mmHg 70%
    01:00 +25°C° 0 mm 2 mps 764 mmHg 72%
    02:00 +24°C° 0 mm 2 mps 763 mmHg 73%
    03:00 +24°C° 0 mm 1 mps 763 mmHg 74%
    04:00 +24°C° 0 mm 1 mps 763 mmHg 73%
    05:00 +24°C° 0 mm 1 mps 763 mmHg 73%
    06:00 +24°C° 0 mm 1 mps 764 mmHg 73%
    07:00 +26°C° 0 mm 1 mps 763 mmHg 67%
    08:00 +27°C° 0 mm 1 mps 763 mmHg 62%
    09:00 +28°C° 0 mm 1 mps 763 mmHg 57%
    10:00 +29°C° 0 mm 2 mps 763 mmHg 53%
    11:00 +30°C° 0 mm 3 mps 762 mmHg 50%
    12:00 +31°C° 0 mm 3 mps 762 mmHg 47%
    13:00 +32°C° 0 mm 4 mps 761 mmHg 45%
    14:00 +32°C° 0 mm 5 mps 761 mmHg 43%
    15:00 +32°C° 0 mm 5 mps 760 mmHg 42%
    16:00 +32°C° 0 mm 5 mps 760 mmHg 43%
    17:00 +30°C° 0 mm 5 mps 760 mmHg 45%
    18:00 +30°C° 0 mm 4 mps 760 mmHg 46%
    19:00 +29°C° 0 mm 4 mps 760 mmHg 50%
    20:00 +28°C° 0 mm 4 mps 761 mmHg 53%
    21:00 +27°C° 0 mm 4 mps 761 mmHg 56%
    22:00 +27°C° 0 mm 3 mps 761 mmHg 59%
    23:00 +26°C° 0 mm 3 mps 761 mmHg 62%

    11 June, Thursday

    Time Temperature Precipitation Wind Pressure Humidity
    00:00 +26°C° 0 mm 2 mps 761 mmHg 65%
    01:00 +25°C° 0 mm 2 mps 760 mmHg 66%
    02:00 +25°C° 0 mm 1 mps 760 mmHg 67%
    03:00 +25°C° 0 mm 1 mps 760 mmHg 68%
    04:00 +25°C° 0 mm 1 mps 760 mmHg 68%
    05:00 +25°C° 0 mm 1 mps 759 mmHg 68%
    06:00 +25°C° 0 mm 2 mps 759 mmHg 69%
    07:00 +27°C° 0 mm 2 mps 759 mmHg 65%
    08:00 +28°C° 0 mm 3 mps 759 mmHg 61%
    09:00 +30°C° 0 mm 4 mps 759 mmHg 57%
    10:00 +30°C° 0 mm 5 mps 759 mmHg 55%
    11:00 +32°C° 0 mm 6 mps 759 mmHg 53%
    12:00 +33°C° 0 mm 6 mps 758 mmHg 51%
    13:00 +33°C° 0 mm 7 mps 758 mmHg 51%
    14:00 +33°C° 0 mm 7 mps 758 mmHg 51%
    15:00 +33°C° 0 mm 7 mps 758 mmHg 52%
    16:00 +32°C° 0 mm 7 mps 757 mmHg 57%
    17:00 +30°C° 0 mm 6 mps 757 mmHg 63%
    18:00 +29°C° 0 mm 6 mps 757 mmHg 68%
    19:00 +28°C° 0.3 mm 5 mps 758 mmHg 71%
    20:00 +28°C° 0.3 mm 5 mps 758 mmHg 73%
    21:00 +27°C° 0.3 mm 4 mps 758 mmHg 76%
    22:00 +27°C° 0.2 mm 4 mps 758 mmHg 76%
    23:00 +27°C° 0.2 mm 4 mps 758 mmHg 75%
    Show more